Date String (YYYY-MM-DD hh:mm:ss) UTC,Instrument flags,absolute air pressure of the measurement (hPa),sample flow rate (lpm),inlet stack bypass flow (lpm),air temperature of the measurement (°C),ambient temperature measured by the external sensor (°C),aerosol sample conditioner tube jacket temperature (°C),OPC LED temperature (°C),internal box temperature (°C),relative humidity of the measurement (%),span deviation,mass concentration of particles derived from Lorenz-Mie calculation of OPC scattering (μg/m³),mass concentration of particles derived from Lorenz-Mie calculation of OPC scattering (μg/m³),mass concentration of particles derived from Lorenz-Mie calculation of OPC scattering (μg/m³)
DateTimeUTC,F1_M11,P_M11,Q1_M11,Q2_M11,T1_M11,T2_M11,T3_M11,T4_M11,T5_M11,U1_M11,ZSPAN_M11,X0_M11,X2_M11,X1_M11
2023-09-27 20:00:00,SystemResetWarning,0830.1,5.01,000.00,028.0,024.6,000.0,036.3,029.7,12.6,0001.5,0021.42,0006.97,0005.36
2023-09-27 20:01:00,SystemResetWarning,0830.0,4.99,000.00,028.0,024.9,000.0,036.4,029.5,12.5,0001.0,0019.56,0006.86,0005.31
2023-09-27 20:02:00,SystemResetWarning,0830.0,5.00,000.00,027.9,025.3,000.0,036.4,029.6,13.1,0001.6,0018.04,0006.82,0005.26
2023-09-27 20:03:00,SystemResetWarning,0830.0,5.02,000.00,027.9,025.8,000.0,036.4,029.7,12.7,0002.3,0017.48,0006.73,0005.20
2023-09-27 20:04:00,SystemResetWarning,0830.0,5.00,000.00,028.0,026.1,000.0,036.4,029.8,12.7,0002.7,0017.63,0006.57,0005.12
2023-09-27 20:05:00,SystemResetWarning,0830.0,4.99,000.00,028.0,026.5,000.0,036.4,029.9,12.6,0003.2,0017.42,0006.45,0005.05
2023-09-27 20:06:00,SystemResetWarning,0830.0,4.99,000.00,028.1,026.8,000.0,036.5,030.0,12.5,0003.2,0017.39,0006.36,0005.00
2023-09-27 20:07:00,SystemResetWarning,0830.0,5.00,000.00,028.1,026.9,000.0,036.5,030.0,12.5,0003.2,0017.31,0006.30,0004.96
2023-09-27 20:08:00,SystemResetWarning,0830.0,5.00,000.00,028.1,025.7,000.0,036.5,029.9,12.6,0003.0,0016.95,0006.25,0004.92
2023-09-27 20:09:00,SystemResetWarning,0830.0,5.00,000.00,028.1,024.5,000.0,036.4,029.7,12.9,0003.0,0017.60,0006.20,0004.87
2023-09-27 20:10:00,SystemResetWarning,0829.9,5.01,000.00,028.0,024.6,000.0,036.3,029.7,13.1,0002.8,0018.33,0006.10,0004.80
2023-09-27 20:11:00,SystemResetWarning,0829.9,5.01,000.00,027.9,024.9,000.0,036.3,029.6,13.1,0002.0,0017.80,0006.02,0004.75
2023-09-27 20:12:00,SystemResetWarning,0829.9,5.00,000.00,027.9,025.3,000.0,036.4,029.6,13.5,0000.2,0018.60,0005.96,0004.73
2023-09-27 20:13:00,SystemResetWarning,0829.9,5.00,000.00,027.9,025.8,000.0,036.4,029.7,13.3,0000.0,0018.69,0005.87,0004.70
2023-09-27 20:14:00,SystemResetWarning,0829.9,5.01,000.00,028.0,026.2,000.0,036.4,029.8,13.2,0000.0,0018.80,0005.77,0004.68
2023-09-27 20:15:00,SystemResetWarning,0830.0,5.00,000.00,028.0,026.5,000.0,036.4,029.9,13.2,0000.0,0018.03,0005.74,0004.66
2023-09-27 20:16:00,SystemResetWarning,0830.0,5.00,000.00,028.1,026.8,000.0,036.4,030.0,13.2,0000.0,0017.07,0005.68,0004.64
2023-09-27 20:17:00,SystemResetWarning,0830.0,4.99,000.00,028.1,026.5,000.0,036.4,030.0,13.2,0000.0,0016.09,0005.62,0004.61
2023-09-27 20:18:00,SystemResetWarning,0829.9,4.99,000.00,028.1,024.9,000.0,036.4,029.8,13.5,0000.0,0015.96,0005.54,0004.57
2023-09-27 20:19:00,SystemResetWarning,0829.9,5.02,000.00,028.0,024.4,000.0,036.3,029.7,13.1,0000.0,0016.40,0005.45,0004.55
2023-09-27 20:20:00,SystemResetWarning,0829.8,4.99,000.00,028.0,024.7,000.0,036.3,029.6,13.2,0000.0,0015.15,0005.46,0004.54
2023-09-27 20:21:00,SystemResetWarning,0829.8,4.99,000.00,027.9,025.0,000.0,036.3,029.5,13.1,0000.0,0014.62,0005.49,0004.55
2023-09-27 20:22:00,SystemResetWarning,0829.8,5.00,000.00,027.9,025.5,000.0,036.3,029.6,13.2,0000.0,0014.46,0005.50,0004.53
2023-09-27 20:23:00,SystemResetWarning,0829.8,5.01,000.00,027.9,025.9,000.0,036.4,029.7,13.1,0000.0,0013.17,0005.46,0004.50
2023-09-27 20:24:00,SystemResetWarning,0829.8,5.00,000.00,028.0,026.2,000.0,036.4,029.8,13.0,0000.0,0013.92,0005.48,0004.48
2023-09-27 20:25:00,SystemResetWarning,0829.8,5.00,000.00,028.0,026.6,000.0,036.4,029.9,13.2,0000.0,0013.72,0005.51,0004.46
2023-09-27 20:26:00,SystemResetWarning,0829.8,5.00,000.00,028.1,026.8,000.0,036.4,030.0,13.2,0000.0,0015.31,0005.48,0004.44
2023-09-27 20:27:00,SystemResetWarning,0829.7,4.99,000.00,028.1,025.8,000.0,036.4,029.9,13.1,0000.0,0016.46,0005.47,0004.43
2023-09-27 20:28:00,SystemResetWarning,0829.7,5.01,000.00,028.0,024.4,000.0,036.3,029.7,13.4,0000.0,0017.17,0005.45,0004.42
2023-09-27 20:29:00,SystemResetWarning,0829.7,5.01,000.00,028.0,024.4,000.0,036.3,029.6,13.6,0000.0,0017.09,0005.42,0004.41
2023-09-27 20:30:00,SystemResetWarning,0829.7,4.99,000.00,027.9,024.7,000.0,036.3,029.5,13.6,0000.0,0017.04,0005.42,0004.40
2023-09-27 20:31:00,SystemResetWarning,0829.7,4.99,000.00,027.9,025.1,000.0,036.3,029.5,13.8,0000.0,0016.93,0005.37,0004.39
2023-09-27 20:32:00,SystemResetWarning,0829.7,5.00,000.00,027.9,025.6,000.0,036.3,029.6,13.5,0000.0,0016.45,0005.32,0004.37
2023-09-27 20:33:00,SystemResetWarning,0829.7,5.01,000.00,027.9,026.0,000.0,036.3,029.7,13.4,0000.0,0016.27,0005.30,0004.38
2023-09-27 20:34:00,SystemResetWarning,0829.7,5.00,000.00,027.9,026.4,000.0,036.3,029.8,13.7,0000.0,0017.03,0005.32,0004.38
2023-09-27 20:35:00,SystemResetWarning,0829.7,5.00,000.00,028.0,026.7,000.0,036.4,029.9,13.5,0000.0,0016.45,0005.32,0004.39
2023-09-27 20:36:00,SystemResetWarning,0829.7,4.99,000.00,028.1,026.6,000.0,036.4,029.9,13.5,0000.0,0017.09,0005.32,0004.40
2023-09-27 20:37:00,SystemResetWarning,0829.7,5.00,000.00,028.0,025.2,000.0,036.3,029.8,13.4,0000.0,0016.40,0005.31,0004.40
2023-09-27 20:38:00,SystemResetWarning,0829.6,5.01,000.00,027.9,024.3,000.0,036.3,029.6,13.8,0000.0,0015.71,0005.31,0004.39
2023-09-27 20:39:00,SystemResetWarning,0829.6,5.01,000.00,027.9,024.5,000.0,036.2,029.5,13.7,0000.0,0014.73,0005.29,0004.40
2023-09-27 20:40:00,SystemResetWarning,0829.5,5.00,000.00,027.8,024.9,000.0,036.2,029.4,14.1,0000.0,0015.10,0005.30,0004.42
2023-09-27 20:41:00,SystemResetWarning,0829.5,4.99,000.00,027.8,025.3,000.0,036.3,029.5,13.9,0000.0,0015.36,0005.32,0004.44
2023-09-27 20:42:00,SystemResetWarning,0829.6,5.00,000.00,027.9,025.8,000.0,036.3,029.6,13.9,0000.0,0015.97,0005.35,0004.46
2023-09-27 20:43:00,SystemResetWarning,0829.6,5.00,000.00,027.9,026.2,000.0,036.3,029.7,13.1,0000.0,0015.92,0005.35,0004.48
2023-09-27 20:44:00,SystemResetWarning,0829.6,5.00,000.00,028.0,026.5,000.0,036.3,029.8,13.1,0000.0,0015.86,0005.36,0004.50
2023-09-27 20:45:00,SystemResetWarning,0829.6,4.99,000.00,028.0,026.8,000.0,036.4,029.9,13.1,0000.0,0015.28,0005.39,0004.52
2023-09-27 20:46:00,SystemResetWarning,0829.5,4.99,000.00,028.1,026.8,000.0,036.4,030.0,13.0,0000.5,0014.86,0005.41,0004.55
2023-09-27 20:47:00,SystemResetWarning,0829.4,5.00,000.00,028.1,025.5,000.0,036.4,029.9,13.1,0001.3,0014.59,0005.44,0004.57
2023-09-27 20:48:00,SystemResetWarning,0829.4,5.00,000.00,028.0,024.4,000.0,036.3,029.7,13.4,0000.0,0013.51,0005.48,0004.60
2023-09-27 20:49:00,SystemResetWarning,0829.4,5.01,000.00,028.0,024.5,000.0,036.3,029.6,13.6,0000.0,0013.26,0005.50,0004.65
2023-09-27 20:50:00,SystemResetWarning,0829.4,5.01,000.00,027.9,024.9,000.0,036.3,029.5,13.5,0000.0,0013.91,0005.53,0004.70
2023-09-27 20:51:00,SystemResetWarning,0829.3,4.99,000.00,027.9,025.3,000.0,036.3,029.6,13.5,0000.0,0013.97,0005.59,0004.74
2023-09-27 20:52:00,SystemResetWarning,0829.4,5.00,000.00,027.9,025.8,000.0,036.3,029.7,13.6,0001.2,0013.09,0005.61,0004.77
2023-09-27 20:53:00,SystemResetWarning,0829.4,5.00,000.00,027.9,026.2,000.0,036.3,029.7,13.8,0001.2,0012.88,0005.65,0004.78
2023-09-27 20:54:00,SystemResetWarning,0829.4,5.00,000.00,028.0,026.5,000.0,036.4,029.8,14.0,0000.6,0014.02,0005.75,0004.81
2023-09-27 20:55:00,SystemResetWarning,0829.4,4.99,000.00,028.0,026.8,000.0,036.4,029.9,14.0,0000.0,0014.06,0005.78,0004.84
2023-09-27 20:56:00,SystemResetWarning,0829.4,4.99,000.00,028.1,026.4,000.0,036.4,030.0,13.7,0000.0,0014.55,0005.80,0004.88
2023-09-27 20:57:00,SystemResetWarning,0829.3,5.00,000.00,028.0,024.9,000.0,036.3,029.8,13.8,0000.0,0014.43,0005.79,0004.90
2023-09-27 20:58:00,SystemResetWarning,0829.3,5.01,000.00,028.0,024.4,000.0,036.3,029.6,14.0,0000.0,0014.83,0005.78,0004.92
2023-09-27 20:59:00,SystemResetWarning,0829.3,5.01,000.00,027.9,024.7,000.0,036.3,029.6,14.0,0000.0,0014.95,0005.78,0004.94
